Seward, AK

10:12 AM AKDT on September 20, 2014 (GMT -0800)
Oak Street Forest Acres Seward Alaska | Change Station
CLOSE
Current Station
Personal Weather Station
Location: Seward, AK
Elevation: 144 ft
Nearby Weather Stations

Elev 144 ft 60.14 °N, 149.44 °W | Updated 41 seconds ago

Overcast
Overcast
47.0 °F
Feels Like 47 °F
N
0.0
Wind Variable Wind from SW

Today
High -- | Low -- °F
--% Chance of Precip.
Yesterday
High -- | Low -- °F
Precip. -- in
7:37 AM 8:02 PM
Waning Crescent, 11% visible
Pressure 29.59 in
Visibility 10.0 miles
Clouds Scattered Clouds 5500 ft
Overcast 7000 ft
Windchill 47 °F
Dew Point 46 °F
Humidity 97%
Rainfall 0.40 in
Snow Depth 0 in , 1 in , 6 in
UV 15.0 out of 12
Pollen Not available.
Air Quality Not available.
Flu Activity Not available.
METAR PAWD 201753Z AUTO 34005KT 10SM SCT055 OVC070 09/08 A2959 RMK AO2 SLP019 60024 T00940083 10094 20078 51007 TSNO

More Conditions Fewer Conditions

Pressure 29.59 in
Visibility 10.0 miles
Clouds Scattered Clouds 5500 ft
Overcast 7000 ft
Windchill 47 °F
Dew Point 46 °F
Humidity 97%
Rainfall 0.40 in
Snow Depth 0 in , 1 in , 6 in
UV 15.0 out of 12
Pollen Not available.
Air Quality Not available.
Flu Activity Not available.
METAR PAWD 201753Z AUTO 34005KT 10SM SCT055 OVC070 09/08 A2959 RMK AO2 SLP019 60024 T00940083 10094 20078 51007 TSNO

More Conditions Fewer Conditions

10-Day Weather Forecast

Almanac

Astronomy

Sep. 20, 2014 Rise Set
Actual Time 7:37 AM AKDT 8:02 PM AKDT
Civil Twilight 6:55 AM AKDT 8:44 PM AKDT
Nautical Twilight 6:04 AM AKDT 9:35 PM AKDT
Astronomical Twilight 5:08 AM AKDT 10:30 PM AKDT
Moon 3:46 AM AKDT 6:43 PM AKDT
Length of Visible Light 13h 48m
Length of Day
12h 25m
Tomorrow will be 5m 25s shorter.
Waning Crescent, 11% of the Moon is Illuminated
Today
Waning Crescent
Sep 24
New
Oct 1
First Quarter
Oct 8
Full
Oct 15
Last Quarter

Today's Extremes

State Highs State Lows

Community

WunderPhotos

Upload Photos

1,754,921 photos uploaded!

WunderBlogs® & News

Nearby

Snow Depth

Station Depth Elevation
Pargon Creek 0 in 300 ft
Munson Ridge 1 in 3100 ft
Rocky Point 6 in 500 ft
Upper Tsaina River 0 in 1750 ft
Moraine 0 in 2100 ft

Earthquake Activity

City Distance Mag. Time & Date
No recent earthquake activity has been reported nearby.
Minimum magnitude displayed is 2.5.

Coastal Water Temperatures

Place Temperature
No Stations Reporting

Nearby Weather Stations